Time,TemperatureF,DewpointF,PressureIn,WindDirection,WindDirectionDegrees,WindSpeedMPH,WindSpeedGustMPH,Humidity,HourlyPrecipIn,Conditions,Clouds,dailyrainin,SoftwareType,DateUTC
2013-07-07 00:00:00,66.4,64.3,30.36,NE,45,2.7,4.5,93,-99.99,,,0.00,VWS V14.01,2013-07-07 04:00:00,
2013-07-07 00:30:00,66.6,64.5,30.36,NE,40,0.0,6.3,93,-99.99,,,0.04,VWS V14.01,2013-07-07 04:30:00,
2013-07-07 01:00:00,66.9,64.8,30.36,WSW,248,0.0,6.9,93,-99.99,,,0.08,VWS V14.01,2013-07-07 05:00:00,
2013-07-07 01:30:00,66.9,64.8,30.36,NE,38,0.0,6.7,93,-99.99,,,0.12,VWS V14.01,2013-07-07 05:30:00,
2013-07-07 02:00:00,67.1,65.3,30.36,NE,48,0.0,5.4,94,-99.99,,,0.12,VWS V14.01,2013-07-07 06:00:00,
2013-07-07 02:30:00,67.1,65.3,30.36,NE,53,2.7,5.4,94,-99.99,,,0.16,VWS V14.01,2013-07-07 06:30:00,
2013-07-07 03:00:00,66.9,65.1,30.33,SSW,210,0.0,5.4,94,-99.99,,,0.16,VWS V14.01,2013-07-07 07:00:00,
2013-07-07 03:30:00,66.9,65.1,30.33,SSW,202,4.5,5.4,94,-99.99,,,0.16,VWS V14.01,2013-07-07 07:30:00,
2013-07-07 04:00:00,66.9,65.1,30.33,South,173,0.0,7.8,94,-99.99,,,0.16,VWS V14.01,2013-07-07 08:00:00,
2013-07-07 04:30:00,66.9,65.1,30.33,SSW,202,0.0,5.4,94,-99.99,,,0.16,VWS V14.01,2013-07-07 08:30:00,
2013-07-07 05:00:00,67.1,65.3,30.33,ENE,57,0.0,5.4,94,-99.99,,,0.20,VWS V14.01,2013-07-07 09:00:00,
2013-07-07 05:30:00,67.1,65.3,30.33,NE,47,2.7,5.4,94,-99.99,,,0.20,VWS V14.01,2013-07-07 09:30:00,
2013-07-07 06:00:00,67.1,65.3,30.33,NNE,32,3.1,6.7,94,-99.99,,,0.20,VWS V14.01,2013-07-07 10:00:00,
2013-07-07 06:30:00,67.1,65.6,30.36,SE,130,0.0,6.3,95,-99.99,,,0.20,VWS V14.01,2013-07-07 10:30:00,
2013-07-07 07:00:00,67.3,65.5,30.36,ESE,108,0.0,8.3,94,-99.99,,,0.20,VWS V14.01,2013-07-07 11:00:00,
2013-07-07 07:30:00,67.3,65.5,30.36,SSE,154,0.0,4.9,94,-99.99,,,0.20,VWS V14.01,2013-07-07 11:30:00,
2013-07-07 08:00:00,67.5,65.7,30.36,SE,127,4.0,5.8,94,-99.99,,,0.20,VWS V14.01,2013-07-07 12:00:00,
2013-07-07 08:30:00,67.6,65.9,30.39,ESE,121,0.0,6.3,94,-99.99,,,0.20,VWS V14.01,2013-07-07 12:30:00,
2013-07-07 09:00:00,67.8,66.3,30.39,ESE,104,3.1,6.3,95,-99.99,,,0.20,VWS V14.01,2013-07-07 13:00:00,
2013-07-07 09:30:00,68.4,66.9,30.39,SSE,168,0.0,5.8,95,-99.99,,,0.20,VWS V14.01,2013-07-07 13:30:00,
2013-07-07 10:00:00,69.1,67.6,30.39,ENE,78,0.0,5.8,95,-99.99,,,0.20,VWS V14.01,2013-07-07 14:00:00,
2013-07-07 10:30:00,69.8,68.3,30.39,ENE,67,0.0,6.7,95,-99.99,,,0.20,VWS V14.01,2013-07-07 14:30:00,
2013-07-07 11:00:00,70.3,68.8,30.39,SSE,159,0.0,4.9,95,-99.99,,,0.20,VWS V14.01,2013-07-07 15:00:00,
2013-07-07 11:30:00,70.3,68.8,30.39,SE,143,0.0,4.5,95,-99.99,,,0.20,VWS V14.01,2013-07-07 15:30:00,
2013-07-07 12:00:00,71.2,69.4,30.39,South,173,0.0,0.0,94,-99.99,,,0.20,VWS V14.01,2013-07-07 16:00:00,
2013-07-07 12:30:00,71.1,69.2,30.39,SW,215,0.0,0.0,94,-99.99,,,0.20,VWS V14.01,2013-07-07 16:30:00,
2013-07-07 13:00:00,71.6,69.8,30.39,ESE,116,0.0,2.7,94,-99.99,,,0.20,VWS V14.01,2013-07-07 17:00:00,
2013-07-07 13:30:00,71.2,69.4,30.39,SE,135,0.0,0.0,94,-99.99,,,0.31,VWS V14.01,2013-07-07 17:30:00,
2013-07-07 14:00:00,71.2,69.4,30.39,SSE,162,0.0,0.0,94,-99.99,,,0.35,VWS V14.01,2013-07-07 18:00:00,
2013-07-07 14:30:00,72.9,71.0,30.39,NE,35,0.0,4.5,94,-99.99,,,0.43,VWS V14.01,2013-07-07 18:30:00,
2013-07-07 15:00:00,73.8,71.9,30.39,East,90,0.0,5.4,94,-99.99,,,0.43,VWS V14.01,2013-07-07 19:00:00,
2013-07-07 15:30:00,72.3,70.5,30.36,SE,136,0.0,4.0,94,-99.99,,,0.47,VWS V14.01,2013-07-07 19:30:00,
2013-07-07 16:00:00,70.3,68.5,30.39,SSW,196,0.0,4.9,94,-99.99,,,1.30,VWS V14.01,2013-07-07 20:00:00,
2013-07-07 16:30:00,69.8,68.0,30.36,NE,35,0.0,6.3,94,-99.99,,,1.42,VWS V14.01,2013-07-07 20:30:00,
2013-07-07 17:00:00,70.5,68.7,30.36,NE,53,0.0,5.8,94,-99.99,,,1.42,VWS V14.01,2013-07-07 21:00:00,
2013-07-07 17:30:00,70.0,67.9,30.36,NE,54,0.0,3.1,93,-99.99,,,1.42,VWS V14.01,2013-07-07 21:30:00,
2013-07-07 18:00:00,70.2,68.1,30.36,ENE,61,0.0,5.8,93,-99.99,,,1.46,VWS V14.01,2013-07-07 22:00:00,
2013-07-07 18:30:00,70.0,67.9,30.36,NE,53,0.0,5.8,93,-99.99,,,1.46,VWS V14.01,2013-07-07 22:30:00,
2013-07-07 19:00:00,69.6,67.5,30.36,NE,54,0.0,4.5,93,-99.99,,,1.46,VWS V14.01,2013-07-07 23:00:00,
2013-07-07 19:30:00,69.6,67.5,30.36,NE,53,0.0,3.6,93,-99.99,,,1.46,VWS V14.01,2013-07-07 23:30:00,
2013-07-07 20:00:00,69.4,67.3,30.36,NE,54,0.0,0.0,93,-99.99,,,1.46,VWS V14.01,2013-07-08 00:00:00,
2013-07-07 20:30:00,69.1,67.0,30.36,NE,53,0.0,0.0,93,-99.99,,,1.46,VWS V14.01,2013-07-08 00:30:00,
2013-07-07 21:00:00,68.9,67.1,30.36,NE,53,0.0,0.0,94,-99.99,,,1.46,VWS V14.01,2013-07-08 01:00:00,
2013-07-07 21:30:00,68.4,66.6,30.36,NE,53,0.0,0.0,94,-99.99,,,1.46,VWS V14.01,2013-07-08 01:30:00,
2013-07-07 22:00:00,68.4,66.6,30.39,NE,54,0.0,0.0,94,-99.99,,,1.46,VWS V14.01,2013-07-08 02:00:00,
2013-07-07 22:30:00,68.2,66.4,30.39,NE,53,0.0,0.0,94,-99.99,,,1.46,VWS V14.01,2013-07-08 02:30:00,
2013-07-07 23:00:00,68.2,66.4,30.42,NE,53,0.0,0.0,94,-99.99,,,1.46,VWS V14.01,2013-07-08 03:00:00,
2013-07-07 23:30:00,68.2,66.4,30.42,NE,53,0.0,0.0,94,-99.99,,,1.46,VWS V14.01,2013-07-08 03:30:00,